Location: Eferding
(48.3167°N, 14.0167°E)
Time: 13:41:03
(UTC+00:00)

DMSP B5D1-3 - Pass Details

Date: 12 November 2019
Orbit: 768 x 780 km, 98.5° (Epoch: 10 December)

Event Time Altitude Azimuth Distance (km) Brightness Sun altitude
Exits shadow 18:05:47 47° 13° (NNE) 1,029 5.0 -26.0°
Maximum altitude 18:07:20 88° 284° (WNW) 788 4.4 -26.3°
Drops below altitude 10° 18:12:29 10° 197° (SSW) 2,328 7.1 -27.1°
Sets 18:14:47 0° 197° (SSW) 3,251 7.9 -27.5°
